Theta_e
326 325 322 320 318 312 308 301 299 299 298 298 298 299 298 296 297 300 303 312 318 321 323 324 325 323 321 322 328 327 324 324 324 324 323 322 322 322 322 321 320 320 320
322 320 317 315 313 311 304 301 299 297 297 298 297 297 297 296 296 297 299 305 317 319 323 324 325 324 325 329 329 326 327 323 323 321 319 318 318 317 317 316 317 316 317
323 319 315 312 309 304 301 301 299 298 297 297 297 297 297 297 296 297 297 299 307 314 320 322 323 324 322 326 327 328 326 322 320 318 316 315 315 314 313 313 313 313 313
319 317 314 311 305 302 301 300 300 298 296 296 294 295 296 296 297 297 297 297 302 307 313 318 319 319 321 322 324 327 326 323 318 316 315 314 313 312 311 311 311 311 311
318 315 313 308 303 300 300 299 296 298 297 296 295 295 294 295 295 297 296 297 300 303 304 312 312 314 317 318 322 323 325 322 320 316 313 312 311 310 310 310 310 310 311
317 315 312 307 303 300 298 298 296 294 294 294 296 294 294 293 294 293 294 297 298 300 300 299 298 301 311 313 317 320 324 322 319 315 312 311 310 309 308 309 309 310 310
315 313 309 304 302 300 299 299 296 295 292 293 293 293 294 294 293 292 294 293 295 298 297 295 295 296 297 308 312 317 320 318 317 313 311 309 308 308 308 309 310 310 311
315 312 309 305 302 300 298 297 296 294 292 295 291 291 288 291 292 293 292 292 293 296 296 296 296 296 294 297 303 314 316 317 318 314 310 308 307 307 308 309 309 310 311
313 312 310 307 304 302 299 298 297 295 292 293 292 291 287 287 290 291 291 292 292 293 293 294 295 295 295 296 301 304 311 312 315 314 310 307 307 308 308 309 309 310 310
312 310 309 307 306 303 300 299 299 297 295 293 291 292 291 290 287 287 289 290 290 292 291 291 293 293 294 295 298 300 305 307 308 308 306 304 305 306 307 308 308 309 310
312 311 310 306 303 302 301 299 298 296 296 295 291 290 289 288 288 288 286 287 288 284 285 290 288 290 292 293 292 296 302 302 302 301 300 299 301 302 304 305 306 308 309
309 309 308 306 304 302 301 300 299 298 297 296 294 292 290 290 288 287 286 285 286 285 285 288 289 287 288 290 293 296 300 300 300 298 298 298 299 301 302 304 305 306 307
307 306 307 305 305 302 301 301 300 298 297 295 295 294 292 291 289 288 288 284 283 282 283 284 287 288 290 290 291 293 297 299 299 298 297 297 297 298 299 301 302 304 304
307 306 305 305 305 304 302 300 299 299 298 297 295 295 293 291 289 288 289 286 281 284 287 287 287 288 287 289 291 293 292 297 297 297 297 298 298 298 299 300 300 301 302
307 305 304 304 303 303 302 300 298 296 296 296 294 293 293 291 288 286 286 287 288 281 283 283 288 288 284 288 291 291 291 294 297 298 297 298 298 298 298 299 299 300 300
306 304 297 297 296 298 298 299 297 293 294 293 293 290 290 290 291 286 286 286 285 287 284 282 287 287 286 288 289 292 292 292 294 296 297 297 296 296 296 297 298 298 299
298 300 298 293 294 296 293 295 295 294 294 293 293 291 291 291 291 289 286 284 284 285 284 282 284 285 285 284 284 284 283 284 285 292 293 294 294 294 295 295 296 296 297
299 297 296 295 293 293 295 296 293 292 294 292 291 291 291 290 290 289 288 287 287 285 284 282 283 284 284 281 279 283 283 284 281 288 291 292 292 293 293 294 294 294 294
298 295 296 296 294 293 293 294 294 292 292 291 290 290 290 289 289 289 289 287 286 284 281 281 281 284 283 283 283 283 282 281 283 287 290 291 291 290 291 292 292 292 292
292 295 295 295 295 292 291 290 289 289 289 289 289 290 290 290 290 289 288 288 285 284 282 282 281 282 282 282 279 280 280 279 281 283 285 286 287 287 288 289 290 290 291
287 288 288 289 289 290 290 289 289 289 289 288 288 288 289 289 290 290 289 287 287 285 284 282 280 280 280 280 281 280 280 280 280 278 278 279 279 280 281 284 285 287 289
286 286 287 288 286 286 292 293 291 289 288 289 288 287 288 287 289 291 291 291 290 287 285 284 281 281 282 281 280 280 277 276 277 276 275 277 277 278 279 278 285 288 289
285 285 286 286 286 286 292 292 291 288 288 288 288 287 286 287 287 288 291 291 290 291 290 287 284 283 281 282 282 279 279 276 275 276 275 274 276 277 279 280 286 288 289
283 284 285 285 285 285 292 292 290 288 288 288 288 287 287 286 287 287 287 286 286 287 287 285 285 284 284 284 284 282 281 277 274 274 273 272 273 275 277 277 285 287 288
281 282 283 283 284 285 290 291 290 286 286 286 287 287 287 286 288 289 287 286 285 285 288 288 288 288 288 287 284 281 278 277 272 273 272 273 274 273 273 275 278 287 287
280 281 282 282 283 283 287 290 290 286 285 285 285 286 285 287 288 289 286 285 284 284 284 284 285 286 287 286 286 283 280 277 275 273 274 273 272 272 272 274 274 275 277
Wind_Speed
10 10 9 9 8 7 8 8 7 7 7 7 6 7 6 6 6 3 2 7 2 5 7 8 8 8 8 9 11 11 9 9 10 11 11 8 9 10 9 8 7 7 6
9 10 9 9 8 8 6 7 8 7 5 6 7 6 6 5 5 5 3 3 3 4 2 6 7 7 5 9 13 10 12 10 10 9 7 7 8 8 8 7 6 5 6
14 11 12 8 7 8 7 5 6 6 6 5 6 6 6 5 4 5 3 2 3 5 3 3 5 6 4 5 10 12 13 10 9 8 6 7 6 6 5 4 4 4 4
14 11 9 10 9 8 8 7 7 6 6 5 4 4 5 5 5 5 3 3 2 3 7 8 6 3 2 3 5 7 9 13 10 6 4 5 5 5 4 3 3 3 3
17 10 10 9 11 8 7 7 4 6 7 5 5 4 4 4 5 3 5 3 3 3 3 5 5 6 4 4 5 6 8 9 10 6 3 4 3 3 2 2 2 3 3
18 15 10 10 11 9 7 6 7 3 4 6 6 5 3 3 3 2 4 3 3 3 3 3 2 2 4 4 2 6 9 9 8 5 3 2 2 2 2 2 2 3 3
16 17 11 13 10 13 12 11 6 9 3 5 6 3 3 4 2 0 2 3 3 4 3 2 1 1 2 3 3 5 6 6 7 5 3 1 1 1 2 4 5 6 6
17 15 16 14 14 10 11 11 9 6 3 6 5 4 2 2 2 0 0 2 4 3 4 4 3 2 0 1 3 6 7 9 11 9 5 1 1 3 4 5 6 7 8
19 18 19 16 14 12 12 14 12 9 6 5 3 6 4 5 2 1 1 2 4 3 3 3 3 3 3 2 2 5 5 4 4 10 7 2 4 6 7 7 8 8 9
14 15 17 18 18 12 13 12 11 9 7 11 1 2 4 5 5 1 2 2 2 4 4 3 3 3 3 2 3 1 4 7 7 5 3 2 4 7 8 9 10 10 10
9 10 11 13 16 12 13 14 13 11 6 8 4 4 2 3 3 4 3 3 2 2 2 4 3 3 3 3 2 2 3 4 5 4 1 1 4 6 8 9 10 12 12
7 8 9 10 11 13 15 13 12 12 10 8 6 4 5 5 4 4 3 2 2 2 1 2 4 4 4 4 4 5 4 5 5 3 2 1 4 7 8 10 11 12 13
7 9 9 10 10 11 12 14 15 12 11 8 11 7 4 4 4 4 4 2 2 2 1 2 3 3 4 4 4 7 6 5 5 4 3 3 5 6 7 9 11 13 14
10 11 11 9 8 10 11 11 9 10 12 10 10 7 4 4 4 4 5 6 2 1 1 4 2 3 3 4 5 8 4 7 6 4 5 6 7 8 9 11 12 13 14
9 14 15 15 12 9 10 13 9 10 11 11 10 9 6 4 3 3 3 4 6 4 5 3 4 3 2 3 6 5 5 7 7 10 11 10 11 12 12 13 14 15 15
11 11 9 9 9 11 8 9 8 7 9 7 7 9 6 4 6 3 3 3 3 5 3 1 2 1 3 2 4 4 4 5 6 7 9 10 12 13 14 15 15 15 16
9 10 11 9 12 12 9 9 8 10 12 10 7 10 10 7 6 5 3 2 3 4 4 1 1 1 1 2 2 1 1 2 2 6 7 9 11 15 15 16 17 18 18
9 12 12 11 11 12 13 14 11 8 11 10 11 9 9 7 8 8 6 7 5 4 5 4 2 2 2 3 2 1 2 3 2 6 8 9 12 14 16 17 18 18 19
7 7 10 12 12 12 12 12 11 11 11 10 10 11 10 10 9 7 7 7 5 3 3 4 4 1 2 1 1 1 3 3 3 7 10 11 12 14 15 16 17 16 17
5 9 9 10 10 10 10 10 9 9 8 7 8 8 8 12 11 11 9 9 6 6 3 4 3 3 2 3 2 3 2 2 2 2 5 5 8 10 12 15 16 14 14
4 4 3 2 6 8 8 11 10 10 10 9 8 8 8 9 11 11 8 9 10 7 5 4 3 3 3 3 5 3 3 1 1 1 1 2 2 3 4 8 8 10 12
5 2 4 5 3 1 9 15 12 10 9 9 9 8 7 9 12 17 17 17 16 13 10 6 3 4 5 4 3 3 3 3 2 1 1 3 1 2 3 2 6 8 8
4 3 3 3 4 4 9 10 11 6 8 8 8 8 7 6 8 9 14 14 14 16 13 12 10 5 5 6 6 4 3 3 3 2 3 2 2 3 2 3 6 6 5
4 3 3 3 2 2 8 12 14 7 7 8 9 9 9 9 11 11 10 9 9 8 7 5 6 6 4 6 6 4 6 4 1 0 2 1 1 3 4 2 7 5 6
5 5 3 3 2 1 4 7 9 5 4 6 6 8 9 10 14 18 12 11 9 7 11 14 13 13 13 12 10 6 4 3 0 2 0 3 1 2 2 3 3 8 9
4 4 5 5 4 1 3 6 7 4 4 4 4 6 11 10 16 21 12 13 12 11 11 9 7 8 9 9 15 6 6 4 3 1 2 3 1 1 3 2 2 2 3
Wind_Direction
161 150 140 138 148 142 144 138 145 129 129 123 118 122 125 125 128 125 120 129 142 161 167 156 144 142 152 158 157 149 127 112 87 77 77 76 67 67 64 48 42 37 32
153 142 137 129 153 135 149 149 146 134 122 124 121 126 130 127 130 128 129 127 123 352 199 152 146 136 146 157 170 142 142 127 105 94 98 81 74 68 62 54 50 44 27
162 159 146 154 158 127 114 130 119 111 113 113 119 121 124 129 130 132 125 106 56 28 342 149 107 106 124 156 172 160 147 132 125 124 111 94 82 73 67 58 47 31 19
145 143 158 163 144 142 145 140 141 131 124 127 126 128 122 124 129 124 116 108 86 62 54 67 76 101 100 151 175 184 173 149 150 157 123 107 97 89 77 55 39 16 4
146 148 165 154 147 144 143 150 110 133 143 117 120 108 113 125 132 130 131 132 127 105 89 81 70 48 46 358 170 178 146 150 155 164 163 121 99 85 70 34 5 342 344
156 155 160 161 152 143 142 130 131 89 116 118 102 78 71 80 100 142 147 138 155 142 122 108 71 6 34 19 1 195 173 145 146 141 178 131 102 87 55 355 344 320 319
161 154 159 156 167 158 161 154 126 130 92 128 107 59 30 51 79 121 149 140 163 152 146 140 138 77 1 348 294 231 209 176 166 177 202 177 137 19 334 326 321 319 316
167 160 158 170 162 151 151 156 148 131 102 182 131 121 128 338 352 160 134 168 191 155 164 168 162 161 79 336 290 254 235 218 176 170 200 211 306 305 309 311 311 310 307
168 170 169 168 164 162 168 166 160 161 144 194 164 136 125 209 145 357 220 220 190 177 184 180 185 166 163 167 37 33 44 53 195 185 183 224 289 301 303 303 304 302 301
175 175 174 169 170 167 168 173 172 163 146 172 105 90 72 133 156 198 292 265 219 213 191 193 193 180 169 154 130 126 76 78 77 91 145 251 289 299 303 303 302 300 299
180 182 183 178 164 167 163 170 171 169 162 163 158 147 119 86 87 126 177 235 305 248 224 183 194 184 177 168 169 200 149 129 122 118 119 315 308 306 306 304 303 302 297
162 176 179 186 178 170 165 169 176 179 174 166 172 151 154 156 175 143 120 203 198 263 248 220 184 186 186 181 190 194 183 175 167 159 172 284 305 309 309 304 302 302 300
171 174 181 181 193 183 175 172 175 177 177 169 178 184 159 159 134 124 113 121 154 284 308 240 209 186 180 183 192 183 199 195 192 196 228 264 286 298 309 309 305 300 299
182 175 176 175 209 201 177 173 178 179 176 179 176 174 175 167 155 151 151 138 49 328 271 237 216 204 185 172 185 182 185 185 195 223 254 261 273 285 293 297 298 296 294
172 173 174 177 166 207 202 171 172 176 176 183 185 174 175 176 157 151 144 148 148 171 238 231 189 179 204 161 181 171 189 213 227 250 257 261 270 278 285 290 289 291 293
159 169 166 172 164 170 200 190 177 168 174 182 177 171 176 153 181 164 156 152 135 152 206 153 183 148 188 181 159 164 192 212 222 245 264 268 276 281 284 282 285 287 289
151 167 175 162 171 173 178 174 214 181 181 178 178 181 195 168 176 175 158 139 145 134 149 136 122 95 107 167 153 138 151 198 247 249 256 270 278 276 278 280 283 285 286
171 170 170 179 178 177 185 188 188 181 187 184 183 182 194 175 182 173 175 184 174 163 130 152 144 140 164 197 127 150 233 218 211 246 258 274 278 279 281 282 282 284 287
185 169 173 183 186 185 183 192 189 185 187 190 184 192 191 174 188 175 181 178 161 137 114 126 141 120 113 139 134 223 227 240 233 251 263 274 282 285 285 283 282 284 287
164 178 186 191 183 183 184 180 170 178 183 182 178 186 180 188 193 185 181 180 154 147 138 122 136 139 153 160 155 167 232 209 235 225 250 258 279 280 285 283 277 278 282
109 98 144 190 168 166 182 182 179 181 183 181 180 181 182 186 185 187 179 175 164 164 158 154 134 141 157 157 191 173 154 130 269 152 291 277 262 272 280 289 279 275 279
42 48 124 129 108 114 186 190 171 181 181 187 190 182 167 177 191 186 190 188 182 173 184 171 156 175 173 157 137 147 130 130 247 228 116 278 274 281 269 268 279 282 283
32 41 68 113 154 141 165 176 168 169 178 185 188 179 171 169 179 191 192 185 194 197 183 179 184 178 153 161 133 125 145 145 207 210 122 287 354 301 294 321 323 311 309
25 33 48 66 88 148 184 177 173 166 174 181 187 178 178 167 185 180 169 172 179 179 175 143 140 136 122 144 137 152 162 142 57 330 132 203 11 283 324 316 1 17 34
13 15 18 40 98 168 221 200 174 156 166 180 178 177 182 181 186 182 176 175 175 165 151 138 134 139 138 146 145 124 144 127 193 264 287 127 271 288 301 304 339 55 46
6 7 18 16 354 318 263 235 194 164 174 154 157 180 188 181 183 185 181 173 179 169 148 141 144 149 158 163 162 171 154 149 133 349 227 136 0 19 337 290 300 336 353